Find Starlink 35282

NORAD ID: 65658 Int'l Des: 2025-211 Owner: SPXS Country: US Constellation: starlink operational
LEOCIRCULARRETROGRADESSO

Live Position

Loading 3D Globe...

About Starlink 35282

Description loading...

Upcoming Passes

Passes for default location (London). Set your location on the main map for personalized predictions.

Altitude History

Loading altitude history...

Two-Line Element Set

1 65658U 25211G 26106.58691073 .00003466 00000-0 24432-3 0 9992
2 65658 97.6026 151.4132 0001552 97.8357 262.3046 15.05650786 32743
Epoch: Apr 16, 2026 • Age: 12 hours

Current Status

Altitude 565.3 km
Velocity 7.58 km/s
Sub-Earth Point -39.74°S, 86.98°E
Launch Date Sep 19, 2025
Age 0.5 years
Type internet

Technical Details

Classification Payload
Mass 575.00 kg
Dry Mass 530.00 kg
Total Mass 575.00 kg
Length 0.30 m
Diameter 4.10 m
Span 29.00 m
Shape Box + pan
Manufacturer SPXS
Bus Type Starlink V2MO
Phase Status In Orbit
Owner/State SPXS/US

Most Searched